Temperature
25 24 24 24 22 21 22 23 24 23 22 22 22 21 21 20 19 18 18 18 19 19 18 18 18 18 18 18 18 18 18 18 18 18 18 18 18 18 18 18 18 18 18 18 18 18 18 18 18
25 24 24 24 22 21 22 24 23 23 23 22 22 21 20 19 19 18 18 18 19 19 19 18 18 18 18 18 18 18 18 18 18 18 18 18 18 18 18 18 18 18 18 18 18 18 18 18 18
25 25 24 22 22 22 23 24 24 24 24 23 22 21 20 19 19 18 18 19 19 19 19 18 18 18 18 18 18 18 18 18 18 18 18 18 18 18 18 18 18 18 18 18 18 18 18 18 17
25 25 24 23 23 24 25 24 24 24 23 23 22 21 20 20 19 19 19 19 19 19 19 19 18 18 18 18 18 18 18 18 18 18 18 18 18 18 18 18 18 18 18 18 18 18 18 18 17
26 25 23 23 24 25 25 25 25 24 23 22 21 20 20 20 19 19 19 19 19 19 19 19 19 19 18 18 18 18 18 18 18 18 18 18 18 18 18 18 18 18 18 18 18 18 18 18 17
26 24 23 23 25 26 25 25 24 23 22 21 21 20 19 19 19 19 19 19 19 19 19 19 19 19 18 18 18 18 18 18 18 18 18 18 18 18 18 18 18 18 18 18 18 18 18 18 17
26 23 24 24 25 25 25 25 24 23 23 22 21 20 19 19 19 19 19 19 19 19 19 19 19 19 18 18 18 18 18 18 18 18 18 18 18 18 18 18 18 18 18 18 18 18 18 18 18
28 24 24 25 25 25 26 25 24 23 23 22 22 20 19 19 19 19 19 19 19 19 19 19 19 19 19 18 18 18 18 18 18 18 18 18 18 18 18 18 18 18 18 18 18 18 18 18 18
29 24 24 25 25 25 26 25 24 24 23 22 22 21 21 20 20 19 19 19 19 19 19 19 19 19 19 19 18 18 18 18 18 18 18 18 18 18 18 18 18 18 18 18 18 18 18 18 18
28 24 25 26 26 25 26 25 24 24 23 22 21 21 21 20 20 20 19 19 19 19 19 19 19 19 19 19 18 18 18 18 18 18 18 18 18 18 18 18 18 18 18 18 18 18 18 18 18
28 26 27 28 27 27 26 25 25 23 22 22 21 21 21 20 20 20 20 20 19 19 19 19 19 19 19 19 19 18 18 18 18 18 18 18 18 18 18 18 18 18 18 18 18 18 18 18 18
28 28 29 28 28 27 26 26 25 24 23 23 22 21 21 21 20 20 20 20 19 19 19 19 19 19 19 19 19 19 18 18 18 18 18 18 18 18 18 18 18 18 18 18 18 18 18 18 18
29 28 29 29 28 27 26 26 25 24 23 23 22 22 21 21 21 20 20 20 20 19 19 19 19 19 19 19 19 18 18 18 18 18 18 18 18 18 18 18 18 18 18 18 18 18 18 18 18
29 29 29 28 28 27 26 25 25 24 23 22 22 22 22 21 21 21 20 20 20 20 19 19 19 19 19 19 19 19 19 18 18 18 18 18 18 18 18 18 18 18 18 18 18 18 18 18 18
30 28 27 28 28 27 26 24 24 24 23 23 22 22 22 22 21 21 21 21 20 20 20 20 19 19 19 19 19 19 19 18 18 18 18 18 18 18 18 18 18 18 18 18 18 18 18 18 18
28 27 26 27 27 27 25 23 24 24 24 23 22 22 22 22 22 21 21 21 21 20 20 20 20 19 19 19 19 19 19 19 19 19 18 18 18 18 18 18 18 18 18 18 18 18 18 18 18
26 25 26 27 27 27 25 24 25 24 24 23 23 22 22 22 22 22 21 21 21 21 20 20 20 20 19 19 19 19 19 19 19 19 18 18 18 18 18 18 18 18 18 18 18 18 18 18 18
26 26 26 27 28 27 25 24 25 25 24 24 23 23 22 22 22 22 22 21 21 21 20 20 20 20 19 19 19 19 19 19 19 18 18 18 18 18 18 18 18 18 18 18 18 18 18 18 18
27 27 27 27 28 27 25 25 25 25 25 24 24 23 23 23 23 22 22 21 21 21 20 20 20 20 20 19 19 19 19 19 19 18 18 18 18 18 18 18 18 18 18 18 18 18 18 18 17
28 27 27 28 28 27 25 25 25 25 25 25 24 23 23 23 23 22 22 22 21 21 21 21 20 20 20 20 19 19 19 19 19 18 18 18 18 18 18 18 18 18 18 18 18 18 18 18 17
28 27 27 27 27 26 26 25 24 25 25 25 25 24 24 23 23 22 22 22 22 21 21 21 21 20 20 20 19 19 19 19 19 19 18 18 18 18 18 18 18 18 18 18 18 18 18 18 17
27 29 29 28 26 24 25 23 24 24 24 24 25 24 24 24 23 23 23 22 22 22 22 21 21 20 20 20 19 19 19 19 19 19 18 18 18 18 18 18 18 18 18 18 18 18 17 17 17
28 29 29 27 25 24 24 23 23 24 24 24 25 25 24 24 24 24 23 23 23 22 22 22 21 21 20 20 20 19 19 19 19 18 18 18 18 18 18 18 18 18 18 18 18 17 17 17 17
29 28 26 23 22 23 24 24 24 23 24 25 25 25 25 24 24 24 24 23 23 23 22 22 21 21 21 20 20 19 19 19 18 18 18 18 18 18 18 18 18 18 18 18 18 18 17 17 17
27 24 23 24 22 23 23 24 23 25 26 26 26 26 26 25 24 24 24 23 23 23 22 22 22 21 21 20 20 20 19 19 19 18 18 18 18 18 18 18 18 18 18 18 17 17 17 17 17
27 24 23 24 23 23 24 24 24 26 27 27 27 27 26 25 25 24 24 24 23 23 23 22 22 22 21 20 20 20 19 19 19 18 18 18 18 18 18 18 18 18 17 17 17 17 17 17 17
27 24 23 22 23 23 23 24 25 26 26 26 26 26 26 26 25 25 24 24 24 24 23 23 23 22 21 21 20 20 20 19 19 19 18 18 18 18 18 18 18 17 17 17 17 17 17 17 17
27 25 22 22 22 23 24 24 24 25 25 25 25 26 26 26 25 25 25 24 24 24 24 23 23 22 22 21 21 20 20 19 19 19 18 18 18 18 18 18 17 17 17 17 17 17 17 17 17
27 26 22 20 21 22 23 23 25 24 25 24 25 26 26 26 26 25 25 25 24 24 23 23 23 22 22 21 21 20 20 19 19 19 18 18 18 18 18 18 17 17 17 17 17 17 17 17 16
27 26 22 22 22 20 21 23 26 25 25 25 26 26 26 26 26 26 25 25 24 24 23 23 23 22 22 21 21 20 20 19 19 19 19 18 18 18 18 17 17 17 17 17 16 16 16 16 16
Wind_Speed
10 7 3 1 4 6 8 8 10 10 8 11 13 12 11 9 7 8 4 8 9 7 8 12 14 15 16 17 17 17 17 17 18 18 18 18 18 18 18 17 17 17 17 17 17 18 18 18 17
6 5 1 3 6 7 7 9 15 14 13 13 14 15 12 9 8 9 6 8 9 9 10 12 14 15 16 16 16 16 16 17 17 18 18 18 17 17 17 17 16 17 17 16 16 16 16 16 15
4 3 2 4 5 8 8 11 15 15 12 10 8 8 7 6 8 6 8 11 10 9 10 13 14 14 15 15 15 15 16 16 16 17 17 17 17 16 16 16 16 16 16 15 15 15 14 14 13
2 2 4 6 9 8 11 13 15 14 11 11 10 8 6 6 6 10 13 14 11 8 10 13 14 14 14 14 15 15 15 16 16 16 16 16 15 15 15 15 15 14 14 13 13 13 12 12 11
2 4 6 7 9 9 12 15 14 13 7 11 12 10 8 7 13 15 14 13 12 7 9 12 14 14 14 14 14 14 14 15 15 15 15 15 14 14 14 13 13 13 12 12 11 10 10 10 9
3 4 6 7 11 11 11 14 17 17 16 13 12 10 5 8 12 12 13 12 11 9 9 11 13 13 13 14 14 13 14 14 14 14 14 13 13 12 12 12 11 11 11 10 9 9 8 7 7
5 5 6 8 10 10 10 11 14 15 13 8 9 7 5 7 10 11 11 11 10 10 8 8 10 12 13 12 12 12 13 13 13 13 12 12 12 11 10 10 10 9 9 8 8 7 6 5 5
5 5 6 7 9 8 9 9 12 14 11 12 8 7 7 8 11 11 10 9 9 7 6 6 7 8 10 10 11 12 11 11 11 11 11 10 9 9 8 8 8 8 7 6 6 5 4 3 2
5 6 6 7 9 9 12 14 9 10 12 7 6 9 12 14 14 12 9 7 7 7 5 5 6 7 8 9 9 10 9 9 9 8 8 7 6 5 5 6 7 6 6 4 4 3 2 2 1
5 7 8 7 10 12 14 15 10 9 12 12 13 13 15 14 13 12 10 9 7 7 6 5 5 6 7 7 7 7 7 7 7 6 6 5 4 4 4 5 5 4 4 3 2 3 2 2 2
6 8 7 8 11 13 13 11 8 13 11 15 17 16 13 12 11 10 9 9 8 8 7 6 5 6 5 5 6 5 5 6 6 6 5 4 3 3 3 2 2 2 2 2 1 1 1 2 2
7 8 9 9 11 12 12 10 9 9 11 15 17 16 12 12 11 10 9 8 7 7 7 6 5 5 5 5 4 4 4 4 4 5 6 5 3 2 3 2 2 2 2 2 1 1 1 2 3
8 6 9 12 12 12 13 11 11 11 15 16 16 14 13 12 10 9 9 8 8 7 6 6 5 5 5 4 3 4 3 5 6 6 6 6 4 2 2 2 2 2 2 2 2 1 1 1 1
6 7 9 13 13 12 16 12 9 12 16 16 15 13 12 12 12 9 9 8 8 7 7 5 6 5 5 4 3 3 4 5 5 5 5 6 5 3 2 1 1 2 2 2 3 2 1 1 1
6 8 6 8 10 9 13 8 9 15 16 15 14 13 12 11 11 11 11 9 9 8 7 6 6 5 4 4 3 4 5 5 4 4 4 5 5 4 3 1 1 1 1 1 2 2 2 1 2
5 6 4 4 8 8 10 7 9 14 15 14 13 13 11 10 11 11 11 9 9 8 8 7 7 5 4 3 2 3 4 5 4 4 4 4 4 5 4 2 1 1 1 2 2 2 1 1 1
3 4 4 4 7 7 7 7 11 13 15 13 12 12 12 10 10 10 11 10 9 9 9 7 6 6 5 3 3 3 3 3 3 3 4 4 5 4 4 2 1 1 1 1 1 1 2 1 1
4 4 4 5 6 7 6 7 13 14 14 14 13 12 12 12 11 12 11 11 10 9 8 7 6 5 4 3 2 2 1 1 2 3 3 4 4 4 3 2 1 1 1 1 1 1 1 1 1
6 4 4 5 6 7 8 9 14 13 12 13 12 13 13 12 11 11 11 11 10 8 8 7 6 5 4 3 2 2 1 1 1 1 3 3 3 3 3 1 1 1 1 2 2 2 1 0 2
4 3 3 2 4 5 7 7 11 13 15 16 16 15 14 12 10 11 11 11 11 10 9 8 7 6 5 4 3 3 2 1 1 1 1 2 3 4 3 2 1 1 1 1 1 2 1 1 1
4 6 5 4 3 5 6 1 5 8 8 10 13 14 14 16 16 14 13 12 11 11 10 10 8 7 6 5 3 2 1 1 1 1 0 1 2 3 3 3 2 2 2 2 2 2 3 2 2
5 6 6 6 5 2 5 3 6 8 8 11 13 13 15 15 14 14 14 13 13 12 11 9 9 7 6 5 4 4 3 2 2 2 1 1 1 2 3 3 3 2 2 2 2 2 2 2 2
6 3 3 4 5 1 1 4 6 4 9 13 15 17 17 16 17 16 16 15 13 12 11 10 9 7 6 5 5 5 3 3 2 1 1 1 1 1 1 2 2 2 1 2 1 1 1 2 2
4 5 6 6 5 1 4 4 5 7 13 14 15 16 17 17 17 16 14 12 11 11 10 10 9 8 7 6 6 5 5 4 2 1 1 1 1 1 1 1 1 1 1 1 1 2 2 2 2
6 7 4 5 4 4 3 3 8 10 12 16 17 16 16 16 16 15 14 13 12 12 12 11 10 9 8 7 6 5 5 5 4 3 3 2 1 1 1 0 1 0 0 1 1 1 1 1 1
5 10 8 5 4 4 2 3 8 7 8 10 11 13 14 14 14 15 15 14 14 14 13 11 11 9 8 7 6 5 5 4 3 3 3 2 2 2 1 1 1 1 1 1 1 1 1 0 0
5 4 9 7 3 1 3 4 7 2 4 6 8 11 13 15 15 15 15 14 13 12 12 12 12 9 9 8 7 5 5 4 4 3 3 2 2 1 1 2 2 1 1 1 1 1 0 0 0
8 8 7 6 5 2 3 3 4 4 6 7 9 10 11 13 13 14 13 13 12 12 11 11 11 10 9 9 8 7 5 5 4 4 3 2 2 1 2 2 2 1 2 2 2 1 1 2 1
3 5 6 5 7 7 3 7 7 9 10 12 11 11 12 13 12 12 12 12 11 10 10 10 10 9 9 9 7 6 5 5 5 4 4 3 2 3 3 3 2 2 2 2 2 1 2 2 1
6 7 8 6 4 6 6 7 6 9 10 12 11 10 11 11 10 10 10 10 10 11 11 10 10 10 10 9 8 7 6 6 5 5 4 4 3 3 3 3 3 2 2 2 2 1 1 2 1
Wind_Direction
164 168 167 124 58 65 82 86 91 79 65 67 73 79 78 65 88 119 159 129 119 108 100 93 89 88 90 92 90 89 90 93 97 100 102 102 102 103 104 104 105 106 106 105 106 107 108 110 111
164 169 142 53 80 84 80 91 89 92 114 105 82 79 74 72 87 111 130 131 120 114 107 100 96 95 94 94 93 92 94 96 99 101 102 102 101 102 103 104 104 105 105 106 107 109 111 112 113
173 179 97 70 94 110 110 102 101 100 98 91 86 66 67 96 103 121 141 131 116 110 110 108 103 100 99 99 98 97 97 99 101 103 104 104 103 103 102 104 105 106 107 108 110 112 114 115 114
144 69 52 79 96 108 116 115 111 101 77 73 90 76 70 95 109 128 134 126 118 115 119 115 110 107 104 103 104 102 100 102 103 104 105 105 105 106 106 106 108 108 110 110 111 113 115 114 114
88 79 65 80 97 104 112 115 109 96 84 86 93 100 88 86 111 125 131 127 123 123 123 123 117 113 110 108 107 104 104 104 105 106 107 108 108 109 108 109 111 112 113 113 114 115 115 114 114
74 74 84 93 95 100 106 110 104 101 108 104 102 103 94 116 120 128 128 130 131 131 129 128 126 121 117 115 114 111 110 109 108 108 109 111 111 111 112 113 115 116 116 117 117 118 117 113 113
112 104 118 114 106 108 115 116 113 122 123 118 120 101 113 123 132 127 126 128 131 132 130 131 133 131 125 122 122 122 120 117 116 115 116 117 116 118 119 124 123 123 122 122 124 125 124 117 114
139 106 100 106 116 116 119 106 122 126 117 126 120 118 142 149 137 128 123 122 127 130 132 135 137 136 135 133 130 126 127 125 125 124 124 125 124 124 128 136 136 135 133 133 134 136 137 132 130
111 97 124 141 132 130 118 107 105 105 115 117 102 121 141 141 133 126 121 119 131 136 141 142 143 144 145 146 143 139 136 135 132 133 132 130 127 131 140 147 149 148 148 152 160 170 174 192 234
105 123 159 159 139 134 125 123 125 113 109 108 108 118 133 137 133 133 138 143 144 148 156 153 152 155 157 151 146 152 146 148 147 146 141 142 147 153 148 150 159 166 174 190 195 210 227 249 268
121 132 138 127 131 131 126 124 117 123 127 140 141 144 144 140 139 143 149 152 156 159 155 157 158 159 154 143 152 167 165 165 166 164 163 157 151 153 149 148 151 163 187 216 257 280 267 240 247
111 126 134 134 129 129 131 126 118 130 147 149 146 148 147 146 149 152 153 155 155 155 159 161 159 155 157 146 159 173 171 173 175 181 174 162 147 152 168 185 206 200 208 217 244 281 226 205 210
103 113 123 127 127 125 121 122 120 129 138 142 145 148 150 152 156 160 159 156 150 152 155 155 149 145 151 147 163 166 181 179 176 174 175 168 161 166 181 197 195 197 203 196 186 181 195 176 173
133 117 119 126 121 122 122 121 111 138 143 146 151 157 159 159 159 157 159 157 157 159 160 157 147 146 144 146 162 161 172 169 168 167 178 172 166 168 172 179 191 205 210 199 180 181 168 159 137
109 103 98 126 119 128 114 104 137 150 149 152 159 163 162 163 160 162 166 165 163 161 162 159 153 146 139 142 150 146 152 148 152 164 167 160 154 155 155 138 159 210 205 188 137 133 120 95 95
81 86 119 182 139 147 116 142 162 158 155 159 165 167 166 170 169 168 167 165 164 158 159 165 160 153 150 146 139 129 145 148 157 164 166 160 151 150 149 137 173 218 132 125 118 124 102 64 71
62 137 176 196 174 152 125 160 174 169 164 168 171 170 169 170 172 172 170 168 165 162 162 166 157 157 162 158 146 140 144 155 162 159 170 176 167 156 147 157 193 190 114 109 128 119 141 139 113
211 176 179 190 186 146 143 170 172 176 172 175 174 173 173 175 178 175 172 169 166 163 163 165 160 164 161 144 118 101 97 153 173 175 188 185 183 171 147 158 191 159 123 90 100 139 137 149 141
185 173 189 207 180 145 153 166 176 179 177 178 178 178 180 183 182 174 172 168 165 163 160 164 160 170 158 149 148 150 174 205 215 196 189 191 190 172 154 147 164 154 152 170 153 142 111 107 124
190 181 204 176 162 143 150 175 183 184 188 185 183 184 184 180 176 178 175 172 172 172 168 167 170 171 171 173 175 171 172 198 202 187 182 197 189 180 167 164 180 173 154 144 149 143 140 202 159
222 199 195 169 97 74 114 123 203 204 194 193 191 187 185 183 181 181 180 180 175 176 176 177 179 175 176 170 148 132 88 32 22 18 272 249 197 188 180 172 181 185 173 185 200 185 175 209 237
244 224 179 147 115 186 145 183 243 203 200 203 199 192 191 188 184 183 183 181 182 183 179 175 177 177 178 170 160 158 166 185 215 209 202 229 212 199 194 194 188 194 190 194 210 193 193 182 227
214 212 146 133 129 97 46 128 268 185 206 214 204 199 195 190 186 187 187 186 184 181 177 177 175 180 180 174 172 169 177 191 199 182 170 212 283 257 228 194 178 193 202 202 208 209 199 189 203
149 62 40 54 78 85 234 153 244 207 205 208 203 199 194 190 189 189 188 180 180 179 178 177 176 183 184 181 178 175 178 177 162 175 188 213 267 294 292 155 163 190 202 210 217 208 205 202 195
100 96 37 7 15 252 234 162 237 224 205 198 194 193 192 189 186 184 182 181 181 180 182 181 178 185 185 181 181 178 177 173 177 186 196 188 197 258 271 114 117 131 192 172 154 154 173 195 181
167 140 155 179 210 280 319 224 254 244 205 188 184 182 181 182 183 183 184 183 184 185 183 180 180 184 182 179 182 181 177 174 179 178 176 183 193 205 202 142 124 133 142 116 109 131 180 158 192
150 155 163 139 150 104 283 290 312 310 130 145 159 169 181 183 183 183 183 183 182 182 183 180 179 179 177 179 178 180 179 174 175 169 165 177 192 166 137 126 113 109 105 105 101 90 100 69 48
158 153 104 121 145 194 282 263 227 229 165 160 158 168 179 177 180 182 181 180 181 180 179 175 177 178 178 179 183 184 181 176 170 160 157 156 162 141 129 122 112 97 76 76 89 84 86 94 55
134 113 113 125 148 149 207 264 221 197 185 174 177 177 173 172 175 176 179 175 173 172 172 175 177 172 173 177 178 176 175 173 167 165 166 157 145 140 142 142 129 111 90 85 88 86 99 99 70
162 162 144 148 199 161 164 257 250 194 184 174 176 176 173 171 172 170 168 163 165 170 171 175 176 175 177 175 172 174 169 166 168 171 168 156 149 147 151 146 137 128 114 99 99 98 94 108 96
Height
1505 1505 1506 1507 1510 1521 1525 1521 1515 1515 1518 1519 1518 1519 1523 1527 1532 1541 1539 1538 1537 1536 1535 1534 1532 1531 1530 1530 1529 1529 1528 1528 1529 1530 1531 1531 1532 1533 1534 1535 1535 1536 1537 1538 1539 1540 1541 1543 1544
1506 1506 1508 1508 1518 1534 1531 1520 1518 1518 1521 1520 1521 1523 1525 1531 1533 1536 1537 1539 1539 1538 1537 1536 1535 1534 1533 1533 1532 1532 1531 1532 1532 1533 1534 1534 1535 1536 1537 1538 1538 1539 1540 1541 1542 1543 1544 1545 1547
1507 1507 1509 1512 1522 1531 1529 1520 1519 1521 1521 1520 1524 1527 1530 1534 1536 1537 1539 1540 1540 1539 1539 1538 1537 1537 1536 1536 1536 1535 1535 1535 1535 1536 1537 1537 1538 1539 1540 1541 1541 1542 1543 1544 1545 1546 1547 1548 1549
1508 1509 1511 1518 1524 1519 1518 1518 1519 1521 1523 1524 1525 1530 1534 1537 1537 1538 1540 1541 1541 1541 1541 1541 1540 1539 1539 1539 1539 1539 1538 1539 1539 1539 1539 1540 1541 1542 1543 1544 1544 1545 1546 1547 1548 1549 1550 1551 1552
1509 1510 1517 1524 1522 1517 1516 1518 1518 1521 1525 1528 1527 1533 1537 1540 1540 1540 1542 1543 1543 1543 1543 1543 1543 1542 1542 1542 1542 1542 1542 1542 1542 1542 1543 1544 1544 1545 1546 1547 1547 1548 1549 1550 1550 1551 1552 1553 1554
1510 1512 1526 1531 1523 1518 1519 1519 1520 1525 1529 1531 1532 1535 1540 1542 1541 1543 1544 1545 1545 1545 1545 1545 1545 1545 1544 1544 1544 1545 1545 1545 1545 1545 1546 1547 1547 1548 1549 1549 1550 1551 1551 1552 1553 1554 1555 1555 1556
1510 1516 1525 1525 1525 1523 1521 1521 1522 1526 1529 1532 1533 1536 1541 1543 1544 1545 1546 1546 1547 1547 1547 1547 1547 1547 1547 1547 1547 1547 1547 1548 1548 1548 1549 1549 1550 1551 1551 1552 1552 1553 1553 1554 1555 1556 1557 1557 1558
1508 1514 1523 1524 1525 1525 1522 1522 1524 1526 1530 1534 1534 1536 1541 1544 1545 1546 1548 1548 1548 1549 1549 1549 1549 1549 1549 1549 1549 1550 1550 1550 1551 1551 1551 1552 1552 1553 1553 1554 1554 1555 1555 1556 1557 1558 1559 1559 1560
1508 1519 1527 1523 1523 1524 1521 1523 1528 1529 1531 1534 1535 1537 1540 1543 1545 1547 1548 1549 1550 1550 1551 1551 1551 1551 1551 1551 1552 1552 1552 1553 1553 1553 1554 1554 1554 1555 1555 1555 1556 1557 1557 1558 1558 1559 1560 1560 1561
1507 1520 1520 1513 1514 1519 1521 1523 1527 1531 1533 1536 1538 1541 1542 1544 1546 1547 1548 1550 1550 1551 1552 1552 1553 1553 1553 1554 1554 1554 1554 1555 1555 1555 1556 1556 1556 1557 1557 1557 1558 1558 1558 1559 1559 1560 1560 1561 1561
1506 1512 1511 1512 1514 1517 1521 1524 1526 1530 1535 1536 1537 1541 1543 1545 1547 1548 1549 1550 1551 1552 1553 1554 1554 1554 1555 1555 1556 1556 1556 1557 1557 1557 1557 1557 1558 1558 1558 1558 1559 1559 1559 1560 1560 1561 1561 1561 1561
1505 1507 1509 1512 1514 1517 1520 1524 1528 1529 1533 1535 1537 1540 1543 1545 1547 1549 1550 1551 1552 1553 1554 1554 1555 1556 1556 1557 1557 1558 1558 1558 1558 1558 1558 1558 1559 1559 1559 1559 1560 1560 1560 1560 1560 1561 1561 1561 1561
1507 1508 1509 1512 1515 1518 1521 1525 1528 1532 1534 1537 1539 1542 1544 1545 1547 1549 1550 1552 1553 1553 1554 1555 1555 1556 1557 1558 1558 1559 1559 1559 1559 1559 1559 1559 1560 1560 1560 1560 1560 1560 1560 1560 1560 1561 1561 1561 1561
1508 1509 1512 1514 1517 1520 1522 1527 1529 1534 1536 1538 1540 1542 1544 1546 1547 1549 1550 1552 1553 1554 1555 1555 1556 1557 1558 1559 1559 1559 1560 1560 1560 1560 1560 1560 1560 1560 1560 1560 1560 1560 1560 1560 1560 1560 1560 1560 1560
1508 1513 1517 1517 1518 1522 1524 1532 1532 1534 1537 1539 1541 1543 1544 1546 1548 1549 1550 1551 1553 1554 1555 1556 1557 1558 1558 1559 1559 1560 1560 1561 1560 1560 1560 1560 1560 1560 1560 1560 1560 1560 1560 1560 1560 1560 1560 1560 1560
1511 1519 1528 1521 1518 1522 1528 1541 1534 1535 1536 1539 1541 1543 1544 1546 1547 1549 1550 1551 1552 1553 1554 1556 1557 1557 1558 1559 1560 1560 1560 1561 1561 1561 1560 1560 1560 1560 1560 1560 1560 1560 1560 1560 1559 1559 1559 1559 1559
1522 1532 1531 1523 1517 1520 1526 1536 1532 1534 1535 1538 1540 1542 1543 1545 1547 1548 1549 1551 1552 1553 1554 1555 1556 1557 1558 1559 1560 1560 1561 1561 1561 1560 1560 1560 1560 1559 1559 1559 1559 1559 1559 1559 1559 1558 1558 1558 1558
1530 1529 1528 1526 1517 1519 1525 1529 1529 1532 1534 1536 1538 1540 1542 1543 1545 1547 1548 1550 1551 1552 1554 1555 1556 1557 1558 1558 1559 1559 1560 1560 1560 1560 1560 1560 1559 1559 1559 1558 1558 1558 1558 1558 1558 1558 1557 1557 1557
1514 1519 1524 1519 1513 1518 1525 1527 1528 1530 1533 1535 1537 1539 1540 1541 1544 1546 1547 1549 1550 1552 1553 1554 1555 1556 1557 1557 1558 1558 1559 1559 1559 1559 1559 1559 1558 1558 1558 1558 1557 1557 1557 1557 1557 1556 1556 1556 1556
1512 1519 1521 1517 1513 1518 1526 1528 1526 1527 1529 1531 1533 1536 1537 1540 1542 1544 1546 1547 1549 1550 1551 1553 1554 1555 1556 1556 1557 1557 1558 1558 1559 1558 1558 1558 1558 1557 1557 1557 1557 1556 1556 1556 1556 1555 1555 1554 1555
1512 1517 1518 1520 1518 1520 1528 1536 1532 1528 1529 1531 1532 1533 1535 1537 1539 1541 1543 1545 1547 1548 1550 1551 1552 1554 1555 1555 1556 1557 1557 1557 1558 1557 1557 1557 1557 1557 1556 1556 1556 1555 1555 1555 1554 1554 1553 1553 1553
1516 1505 1508 1514 1527 1538 1533 1554 1536 1529 1529 1529 1530 1531 1533 1535 1536 1538 1540 1542 1544 1546 1548 1550 1551 1552 1553 1554 1555 1555 1555 1556 1556 1556 1556 1556 1556 1556 1556 1555 1555 1554 1554 1553 1553 1552 1552 1552 1551
1505 1500 1505 1513 1527 1538 1535 1548 1542 1528 1530 1526 1525 1527 1528 1531 1533 1535 1537 1539 1542 1544 1546 1548 1550 1551 1552 1553 1553 1554 1554 1555 1555 1555 1555 1555 1555 1555 1554 1554 1553 1553 1553 1552 1551 1551 1550 1550 1549
1496 1503 1511 1522 1534 1551 1539 1545 1543 1529 1521 1517 1518 1521 1524 1527 1530 1532 1535 1538 1540 1543 1545 1546 1548 1549 1550 1551 1552 1553 1553 1554 1554 1554 1554 1554 1554 1553 1553 1552 1552 1551 1551 1550 1550 1549 1548 1548 1548
1500 1523 1546 1550 1558 1554 1535 1538 1535 1511 1506 1507 1511 1515 1519 1523 1526 1530 1533 1535 1538 1540 1542 1544 1545 1547 1548 1550 1550 1551 1552 1552 1552 1553 1553 1552 1552 1551 1551 1551 1550 1550 1549 1549 1548 1547 1547 1546 1546
1503 1518 1546 1559 1562 1553 1536 1538 1522 1503 1500 1502 1506 1511 1515 1520 1524 1527 1530 1532 1535 1537 1540 1542 1543 1545 1547 1548 1549 1549 1550 1551 1551 1551 1551 1551 1551 1550 1550 1549 1549 1548 1548 1547 1546 1546 1545 1544 1544
1502 1514 1517 1538 1545 1553 1545 1531 1514 1502 1502 1504 1507 1510 1513 1516 1520 1523 1527 1530 1533 1535 1537 1539 1541 1543 1544 1546 1547 1548 1549 1549 1549 1550 1550 1550 1550 1549 1549 1548 1548 1547 1546 1545 1545 1544 1543 1543 1542
1490 1501 1522 1538 1555 1560 1548 1538 1530 1511 1508 1505 1506 1508 1510 1513 1517 1521 1524 1527 1530 1533 1536 1538 1540 1541 1542 1544 1545 1546 1547 1547 1548 1548 1548 1548 1548 1548 1548 1547 1547 1546 1545 1545 1544 1543 1542 1542 1541
1495 1503 1517 1533 1538 1554 1558 1543 1507 1504 1502 1502 1503 1504 1507 1511 1514 1518 1522 1525 1528 1531 1534 1536 1537 1539 1541 1542 1543 1544 1545 1546 1546 1546 1547 1547 1547 1547 1547 1547 1546 1545 1545 1544 1543 1542 1542 1541 1540
1487 1496 1511 1530 1537 1540 1546 1535 1495 1495 1496 1498 1500 1503 1506 1509 1513 1516 1520 1523 1526 1529 1531 1533 1535 1537 1538 1540 1541 1542 1543 1544 1544 1545 1545 1546 1546 1546 1546 1546 1546 1545 1544 1544 1543 1542 1541 1540 1539